Home   Weather   Dąbrowa Górnicza   Past weeks

Flag for Poland Past Weather in Dąbrowa Górnicza, Poland — Yesterday and Last 2 Weeks

Now
34 °F

Light snow. Overcast.


Feels Like: 24 °F
Forecast: 26 / 33 °F
Wind: 14 mph from West

Location: Katowice Airport

Current Time: Dec 2, 2016 at 11:30:47 pm

Latest Report: Dec 2, 2016 at 11:00 pm


Visibility: N/A

Pressure: 30.01 "Hg

Humidity: 87%

Dew Point: 30 °F

Location of Dąbrowa GórniczaLocation

Past Weather in Dąbrowa Górnicza — Graph

°F

Dąbrowa Górnicza Temperature Yesterday

Maximum temperature yesterday: 37 °F (at 9:00 pm)
Minimum temperature yesterday: 32 °F (at 12:00 am)
Average temperature yesterday: 34 °F

High & Low Weather Summary for the Past Weeks

 TemperatureHumidityPressure
High64 °F (Nov 21, 11:30 am)100% (Nov 19, 10:00 am)30.39 "Hg (Nov 19, 10:00 am)
Low21 °F (Nov 29, 12:00 am)52% (Nov 21, 11:30 am)29.45 "Hg (Dec 2, 3:30 am)
Average41 °F85%30.01 "Hg
* Reported Nov 17 10:00 pm — Dec 2 10:30 pm, Dąbrowa Górnicza, Weather by CustomWeather, © 2016

Note: Actual official high and low records may vary slightly from our data, if they occured in-between our weather recording intervals... More about our weather records

Advertising

Dąbrowa Górnicza Weather History for the Previous 24 Hours

Scroll right to see more
 ConditionsComfort  
Time TempWeatherWind HumidityBarometerVisibility
10:30 pm
Fri, Dec 2
34 °FLight snow. Mostly cloudy.15 mph87%30.01 "HgN/A
10:00 pm34 °FPartly cloudy.14 mph87%30.01 "HgN/A
9:30 pm34 °FPartly cloudy.14 mph81%30.01 "HgN/A
9:00 pm34 °FPassing clouds.12 mph81%29.98 "HgN/A
8:30 pm34 °FMostly cloudy.13 mph81%29.98 "HgN/A
8:00 pm34 °FPassing clouds.10 mph81%29.98 "HgN/A
7:30 pm34 °FPassing clouds.13 mph81%29.98 "HgN/A
7:00 pm34 °FOvercast.12 mph81%29.98 "HgN/A
6:30 pm34 °FOvercast.13 mph87%29.95 "HgN/A
6:00 pm34 °FMostly cloudy.13 mph87%29.95 "HgN/A
5:30 pm32 °FOvercast.12 mph93%29.95 "HgN/A
5:00 pm32 °FPartly cloudy.12 mph93%29.95 "HgN/A
4:30 pm32 °FPassing clouds.12 mph93%29.92 "HgN/A
4:00 pm34 °FPartly cloudy.10 mph87%29.92 "HgN/A
3:00 pm34 °FBroken clouds.9 mph93%29.89 "HgN/A
2:30 pm34 °FSnow flurries. Broken clouds.9 mph93%29.89 "Hg3 mi
2:00 pm34 °FSnow flurries. Broken clouds.8 mph87%29.86 "Hg4 mi
1:30 pm34 °FSprinkles. Broken clouds.9 mph87%29.86 "HgN/A
1:00 pm34 °FPartly sunny.10 mph87%29.83 "HgN/A
12:30 pm34 °FLight rain. Low clouds.13 mph87%29.83 "HgN/A
12:00 pm34 °FMostly cloudy.12 mph87%29.80 "HgN/A
11:30 am34 °FLight rain. More clouds than sun.12 mph87%29.77 "HgN/A
11:00 am34 °FSprinkles. Scattered clouds.15 mph87%29.74 "HgN/A
10:30 am34 °FSprinkles. Partly sunny.15 mph87%29.71 "Hg4 mi
10:00 am34 °FRain showers. Broken clouds.17 mph93%29.68 "Hg2 mi
9:30 am34 °FSnow flurries. Broken clouds.20 mph93%29.62 "Hg5 mi
9:00 am34 °FSnow flurries. Broken clouds.23 mph93%29.59 "HgN/A
8:30 am36 °FSnow flurries. Broken clouds.24 mph87%29.56 "Hg5 mi
8:00 am36 °FSnow flurries. Broken clouds.26 mph81%29.53 "HgN/A
7:30 am36 °FMostly cloudy.29 mph75%29.53 "HgN/A
7:00 am36 °FPartly cloudy.22 mph81%29.53 "HgN/A
6:30 am36 °FPassing clouds.25 mph81%29.50 "HgN/A
6:00 am36 °FPartly cloudy.21 mph87%29.50 "HgN/A
5:30 am36 °FPassing clouds.20 mph87%29.50 "HgN/A
5:00 am36 °FSprinkles. Passing clouds.22 mph87%29.50 "HgN/A
4:30 am36 °FSnow showers. Fog.25 mph87%29.50 "Hg3 mi
4:00 am39 °FLight rain. Partly cloudy.28 mph93%29.47 "HgN/A
3:30 am39 °FLight rain. Passing clouds.26 mph93%29.45 "HgN/A
3:00 am39 °FLight rain. Low clouds.28 mph93%29.47 "HgN/A
2:30 am39 °FLight rain. Mostly cloudy.29 mph93%29.47 "HgN/A
2:00 am37 °FRain. Fog.25 mph100%29.47 "Hg3 mi
1:30 am37 °FRain. Fog.25 mph100%29.50 "Hg2 mi
1:00 am37 °FLight rain. Mostly cloudy.26 mph93%29.50 "Hg6 mi
12:30 am37 °FLight rain. Mostly cloudy.29 mph93%29.53 "HgN/A
12:00 am37 °FLight rain. Mostly cloudy.25 mph93%29.56 "HgN/A
11:30 pm
Thu, Dec 1
37 °FLight rain. Mostly cloudy.25 mph93%29.56 "Hg6 mi
11:00 pm37 °FLight rain. Low clouds.24 mph93%29.56 "Hg4 mi
Weather by CustomWeather, © 2016

See weather overviewHow to use our weather pages